Weather History for Whiting Fld NAS, FL

Change the Weather History Date:

Thursday, January 17, 2013

  Actual Average Record
Temperature  
Mean Temperature 42 °F -  
Max Temperature 46 °F 59 °F 75 °F (2012)
Min Temperature 39 °F 40 °F 21 °F (1997)
Degree Days  
Heating Degree Days 22    
Moisture  
Dew Point 36 °F    
Average Humidity 76    
Maximum Humidity 89    
Minimum Humidity 58    
Precipitation  
Precipitation 0.00 in - - ()
Sea Level Pressure  
Sea Level Pressure 30.09 in    
Wind  
Wind Speed 12 mph (WNW)    
Max Wind Speed 24 mph    
Max Gust Speed 32 mph    
Visibility 8 miles    
Events Rain    
Averages and records for this station are not official NWS values.
T = Trace of Precipitation, MM = Missing Value Source: NWS Daily Summary

Daily Weather History Graph

Daily Weather History Graph

Search for Another Location

Airport:

Trip Planner

Search our weather history database for the weather conditions in past years. The results will help you decide how hot, cold, wet, or windy it might be!

Date:

Astronomy

Jan. 17, 2013 Rise Set
Actual Time 6:45 AM CST 5:11 PM CST
Civil Twilight 6:19 AM CST 5:37 PM CST
Nautical Twilight 5:50 AM CST 6:06 PM CST
Astronomical Twilight 5:21 AM CST 6:35 PM CST
Moon 10:22 AM CST (1/17) 11:29 PM CST (1/17)
Length of Visible Light 11h 17m
Length of Day
10h 25m
Waxing Crescent, 38% of the Moon is Illuminated
Jan 17
Waxing Crescent
Jan 18
First Quarter
Jan 26
Full
Feb 3
Last Quarter
Feb 10
New

Hourly Weather History & Observations

Time (CST) Temp. Windchill Dew Point Humidity Pressure Visibility Wind Dir Wind Speed Gust Speed Precip Events Conditions
12:10 AM 46.4 °F 41.9 °F 42.8 °F 87% 30.01 in 2.5 mi WNW 9.2 mph - N/A   Overcast
12:33 AM 46.4 °F 42.4 °F 42.8 °F 87% 30.01 in 4.0 mi WNW 8.1 mph - N/A   Overcast
12:56 AM 46.0 °F 41.0 °F 42.1 °F 86% 29.99 in 4.0 mi WNW 10.4 mph - N/A   Overcast
1:45 AM 44.6 °F 40.2 °F 41.0 °F 87% 30.01 in 5.0 mi WNW 8.1 mph - N/A   Overcast
1:56 AM 45.0 °F 40.1 °F 41.0 °F 86% 29.98 in 7.0 mi WNW 9.2 mph - N/A   Overcast
2:25 AM 44.6 °F 40.2 °F 41.0 °F 87% 30.01 in 8.0 mi West 8.1 mph - N/A   Overcast
2:45 AM 44.6 °F 40.7 °F 41.0 °F 87% 30.01 in 9.0 mi West 6.9 mph - N/A   Overcast
2:56 AM 45.0 °F 40.1 °F 39.9 °F 82% 29.98 in 8.0 mi West 9.2 mph - N/A   Overcast
3:18 AM 44.6 °F 40.2 °F 41.0 °F 87% 30.02 in 3.0 mi West 8.1 mph - 0.00 in Rain Light Rain
3:56 AM 44.1 °F 38.1 °F 41.0 °F 89% 29.99 in 7.0 mi West 11.5 mph - 0.00 in   Overcast
4:14 AM 44.6 °F 38.8 °F 41.0 °F 87% 30.02 in 3.0 mi West 11.5 mph - 0.00 in Rain Light Rain
4:33 AM 44.6 °F 38.1 °F 39.2 °F 81% 30.03 in 4.0 mi West 13.8 mph - 0.00 in Rain Light Rain
4:47 AM 42.8 °F 35.1 °F 39.2 °F 87% 30.04 in 3.0 mi West 16.1 mph 25.3 mph 0.00 in Rain Light Rain
4:56 AM 43.0 °F 35.7 °F 39.0 °F 86% 30.01 in 6.0 mi West 15.0 mph 23.0 mph 0.00 in   Overcast
5:08 AM 42.8 °F 35.1 °F 37.4 °F 81% 30.05 in 4.0 mi West 16.1 mph 21.9 mph N/A   Overcast
5:19 AM 42.8 °F 36.2 °F 37.4 °F 81% 30.05 in 9.0 mi West 12.7 mph 23.0 mph N/A   Overcast
5:41 AM 41.0 °F 33.1 °F 37.4 °F 87% 30.05 in 6.0 mi West 15.0 mph - 0.00 in   Drizzle
5:56 AM 41.0 °F 35.2 °F 37.0 °F 86% 30.02 in 9.0 mi West 9.2 mph - 0.00 in   Overcast
6:26 AM 41.0 °F 34.3 °F 37.4 °F 87% 30.06 in 10.0 mi West 11.5 mph 17.3 mph N/A   Overcast
6:56 AM 39.9 °F 31.8 °F 36.0 °F 86% 30.04 in 6.0 mi West 15.0 mph 20.7 mph 0.00 in   Drizzle
7:56 AM 39.9 °F 32.1 °F 36.0 °F 86% 30.07 in 3.0 mi West 13.8 mph - 0.00 in   Drizzle
8:17 AM 39.2 °F 31.2 °F 35.6 °F 87% 30.10 in 10.0 mi West 13.8 mph 21.9 mph 0.00 in   Overcast
8:56 AM 39.9 °F 30.5 °F 35.1 °F 83% 30.10 in 10.0 mi WNW 19.6 mph 27.6 mph 0.00 in   Overcast
9:56 AM 39.9 °F 31.1 °F 32.0 °F 73% 30.11 in 10.0 mi WNW 17.3 mph 28.8 mph N/A   Overcast
10:56 AM 39.9 °F 29.5 °F 30.0 °F 68% 30.12 in 10.0 mi NW 24.2 mph 32.2 mph N/A   Overcast
11:56 AM 42.1 °F 34.2 °F 30.0 °F 62% 30.11 in 10.0 mi NW 16.1 mph 28.8 mph N/A   Overcast
12:56 PM 44.1 °F 36.2 °F 32.0 °F 63% 30.10 in 10.0 mi NW 18.4 mph 28.8 mph N/A   Overcast
1:56 PM 46.0 °F 39.3 °F 32.0 °F 58% 30.11 in 10.0 mi NW 16.1 mph 28.8 mph N/A   Overcast
2:56 PM 46.0 °F 39.3 °F 33.1 °F 61% 30.12 in 10.0 mi NW 16.1 mph 24.2 mph N/A   Overcast
3:56 PM 46.0 °F 38.8 °F 33.1 °F 61% 30.15 in 10.0 mi NW 18.4 mph 25.3 mph N/A   Overcast
4:20 PM 46.4 °F 39.0 °F 33.8 °F 62% 30.20 in 10.0 mi NW 19.6 mph 27.6 mph N/A   Mostly Cloudy
4:56 PM 46.0 °F 38.5 °F 33.1 °F 61% 30.17 in 10.0 mi NW 19.6 mph 25.3 mph N/A   Scattered Clouds
5:56 PM 45.0 °F 38.2 °F 33.1 °F 63% 30.21 in 10.0 mi NW 15.0 mph 18.4 mph N/A   Partly Cloudy
6:56 PM 45.0 °F 37.1 °F 30.9 °F 58% 30.25 in 10.0 mi NNW 19.6 mph 26.5 mph N/A   Clear
7:56 PM 44.1 °F 37.1 °F 30.9 °F 60% 30.26 in 10.0 mi NNW 15.0 mph 23.0 mph N/A   Clear
8:56 PM 43.0 °F 36.8 °F 32.0 °F 65% 30.27 in 10.0 mi NNW 11.5 mph 19.6 mph N/A   Clear
9:56 PM 42.1 °F 35.2 °F 32.0 °F 67% 30.27 in 10.0 mi NNW 12.7 mph - N/A   Clear
10:56 PM 43.0 °F 36.4 °F 32.0 °F 65% 30.25 in 10.0 mi North 12.7 mph 19.6 mph N/A   Clear
11:56 PM 44.1 °F 38.6 °F 32.0 °F 63% 30.26 in 10.0 mi NNW 10.4 mph 21.9 mph N/A   Clear